{"data":{"norad_id":58138,"intl_designator":"2023-162W","name":"STARLINK-30769","alt_names":[],"object_type":"PAYLOAD","status":"ACTIVE","operator":null,"country":"US","launch_date":"2023-10-22","launch_site_code":"AFETR","launch_vehicle":null,"mission":null,"orbit_class":"UNKNOWN","rcs_meters":null,"size_class":null,"mass_kg":null,"dimensions":null,"purposes":["comms"],"wikipedia_slug":null,"has_3d_model":false,"image_url":null,"decayed_at":null,"tle_current":{"epoch":"2026-09-20T22:53:10.412736Z","epoch_age_seconds":101286,"freshness":"FRESH","line1":"1 58138U 23162W   26263.95359274  .00000175  00000+0  15893-4 0  9994","line2":"2 58138  43.0037 109.4406 0001541 257.7169 102.3510 15.27578086162174","mean_motion":15.27578086,"eccentricity":0.0001541,"inclination_deg":43.0037,"raan_deg":109.4406,"arg_perigee_deg":257.7169,"mean_anomaly_deg":102.351,"bstar":1.5893e-5,"rev_number":16217,"period_min":94.266866826473,"perigee_km":481.99751758962,"apogee_km":484.11213691078,"semimajor_km":6861.1918272502,"source":"CELESTRAK","updated_at":"2026-09-21T09:00:33.794728Z"}}}